sat.trackr.live / text

‹ back to catalog

SPOT 6

NORAD 38755 · 2012-047A

PAYLOAD ACTIVE UNKNOWN

§ Identity

Operator
Country
FR
Launch date
2012-09-09
Launch site
SRILR
Launch vehicle
Mass (kg)
RCS (m²)
3.80

Purposes: earth_obs

External: N2YO · Heavens-Above · Gunter

§ Orbital elements

Epoch: 2026-09-04T03:48:37.027296Z

Period
98.73 min
Inclination
98.2050°
Eccentricity
0.0001613
Mean motion
14.58559624 rev/d
Perigee alt
696.7 km
Apogee alt
699.0 km
Semi-major
7,076.0 km
B*
3.6565e-5
RAAN
313.5154°
Arg perigee
92.7358°
Mean anomaly
267.4026°
Rev number
74,456

§ Raw data

SPOT 61 38755U 12047A   26247.15876189  .00000124  00000+0  36565-4 0  99932 38755  98.2050 313.5154 0001613  92.7358 267.4026 14.58559624744563

JSON: /api/v1/satellites/38755 · /tle

For live sub-satellite position, see the globe view (requires WebGL).

§ Visibility from observer

Set your observer location to see the next 7 days of passes ≥ 10°. The values pass through the URL so the page stays shareable.

No JS? Fill the form by hand. The geolocation button needs JavaScript.